Cloud_Cover
0 0 0 0 0 0 8 20 36 56 64 44 24 12 0 8 8 0 0 0 0 0 0 0 0 0 0 0 0 0 0 0 0 0 0 0 0 0 0 0 0 0 0 0 0 0 0 0 0 8 24 44 76 80 36 48 68 68 24 8 0 0 0 0 0 0 0 0 0 0 0 0 0 0 0 0 0 0 0 0 0 0 0 0 0 0 0 0 0 0 0 0 0 0 0 0 0 0 0 0 0 0 0
0 0 0 0 0 12 56 44 48 56 56 36 32 36 32 24 8 0 12 8 0 0 0 0 0 0 0 0 0 0 0 0 0 0 0 0 0 0 0 0 0 0 0 0 0 0 0 0 0 0 8 24 44 56 44 64 64 56 36 8 0 0 0 0 0 0 0 0 0 0 0 0 0 0 0 0 0 0 0 0 0 0 0 0 0 0 0 0 0 0 0 0 0 0 0 0 0 0 0 0 0 0 0
0 0 0 0 24 56 64 48 44 36 36 44 68 88 88 48 24 8 8 64 44 0 0 0 0 0 0 0 0 0 0 0 0 0 0 0 0 0 0 0 0 0 0 0 0 0 0 0 0 0 20 8 8 20 32 36 36 32 12 0 0 0 0 0 0 0 0 0 0 0 0 0 0 0 0 0 0 0 0 0 0 0 0 0 0 0 0 0 0 0 0 0 0 0 0 0 0 0 0 0 0 0 0
0 0 12 64 88 80 48 48 36 24 12 68 92 92 92 48 24 12 20 36 24 8 0 0 0 0 0 0 0 0 0 0 0 0 0 0 0 0 0 0 0 0 0 0 0 0 0 0 0 8 24 8 0 8 20 12 8 8 0 0 0 0 0 0 0 0 0 0 0 0 0 0 0 0 0 0 0 0 0 0 0 0 0 0 0 0 0 0 0 0 0 0 0 0 0 0 0 0 0 0 0 0 0
0 8 36 80 92 80 32 36 32 24 20 32 68 88 76 32 12 8 12 24 20 0 0 0 0 0 0 0 0 0 0 0 0 0 0 0 0 0 0 0 0 0 0 0 0 0 0 0 0 0 8 0 0 0 0 0 0 0 0 0 0 0 0 0 0 0 0 0 0 0 0 0 0 0 0 0 0 0 0 0 0 0 0 0 0 0 0 0 0 0 0 0 0 0 0 0 0 0 0 0 0 0 0
12 0 0 36 76 80 48 80 64 32 0 0 12 24 8 0 0 0 0 12 8 0 0 0 0 0 0 0 0 0 0 0 0 0 0 0 0 0 0 0 0 0 0 0 0 0 0 0 0 0 8 0 0 0 0 0 0 0 0 0 0 0 0 0 0 0 0 0 0 0 0 0 0 0 0 0 0 0 0 0 0 0 0 0 0 0 0 0 0 0 0 0 0 0 0 0 0 0 0 0 0 0 0
0 8 36 12 12 24 24 80 68 32 0 0 0 0 0 0 0 0 0 8 0 0 0 0 0 0 0 0 0 0 0 0 0 0 0 0 0 0 0 0 0 0 0 0 0 0 0 0 0 0 8 0 0 0 0 0 0 0 0 0 0 0 0 0 0 0 0 0 0 0 0 0 0 0 0 0 0 0 0 0 0 0 0 0 0 0 0 0 0 0 0 0 0 0 0 0 0 0 0 0 0 0 0
8 24 80 56 20 0 0 48 56 32 0 0 0 0 0 0 0 0 0 0 0 0 0 0 0 0 0 0 0 0 0 0 0 0 0 0 0 0 0 0 0 0 0 0 0 0 0 0 0 0 0 12 8 0 0 0 0 0 0 0 0 0 0 0 0 0 0 0 0 0 0 0 0 0 0 0 0 0 0 0 0 0 0 0 0 0 0 0 0 0 0 0 0 0 0 0 0 0 0 0 0 0 0
56 36 92 92 48 0 0 0 0 0 0 0 0 0 0 0 0 0 0 0 0 0 0 0 0 0 0 0 0 0 0 0 0 0 0 0 0 0 0 0 0 0 0 0 0 0 0 0 0 0 0 20 24 20 0 0 0 0 0 0 0 0 0 0 0 0 0 0 0 0 0 0 0 0 0 0 0 0 0 0 0 0 0 0 0 0 0 0 0 0 0 0 0 0 0 0 0 0 0 0 0 0 0
64 44 88 64 32 8 0 0 0 0 0 0 0 0 0 0 0 0 0 0 0 0 0 0 0 0 0 0 0 0 0 0 0 0 0 0 0 0 0 0 0 0 0 0 0 0 0 0 0 0 0 0 20 32 0 0 0 0 0 0 0 0 0 0 0 0 0 0 0 0 0 0 0 0 0 0 0 0 0 0 0 0 0 0 0 0 0 0 0 0 0 0 0 0 0 0 0 0 0 0 0 0 0
80 56 32 32 12 0 0 0 0 0 0 0 0 0 0 0 0 0 0 0 0 0 0 0 0 0 0 0 0 0 0 0 0 0 0 0 0 0 0 0 0 0 0 0 0 0 0 0 0 0 0 0 24 36 0 0 0 0 0 0 0 0 0 0 0 0 0 0 0 0 0 0 0 0 0 0 0 0 0 0 0 0 0 8 12 8 0 0 0 0 0 0 0 0 0 0 0 0 0 0 0 0 0
92 76 8 8 0 8 20 20 8 0 0 0 0 0 0 0 0 0 0 0 0 0 0 0 0 0 0 0 0 0 0 0 0 0 0 0 0 0 0 0 0 0 0 0 0 0 0 0 0 0 0 0 8 12 0 0 0 0 0 0 0 0 0 0 0 0 0 0 0 0 0 0 0 0 0 0 0 0 0 0 0 0 0 12 24 24 8 0 0 0 0 0 0 0 0 0 0 0 0 0 0 0 0
68 48 8 12 24 56 92 92 56 12 0 0 0 0 0 0 0 0 0 0 0 0 0 0 0 0 0 0 0 0 0 0 0 0 0 0 0 0 0 0 0 0 0 0 0 0 0 0 0 0 0 0 0 0 0 0 0 0 0 0 0 0 0 0 0 0 0 0 0 0 0 0 0 0 0 0 0 0 0 0 0 0 0 12 24 32 24 8 0 0 0 0 0 8 8 8 0 0 0 0 0 0 0
0 0 0 12 44 76 88 88 56 20 0 0 0 0 0 0 0 0 0 0 0 0 0 0 0 0 0 0 0 0 0 0 0 0 0 0 0 0 0 0 0 0 0 0 0 0 0 0 0 0 0 0 0 0 0 0 0 0 0 0 0 0 0 0 0 0 0 0 0 0 0 0 0 0 0 0 0 0 0 0 0 0 0 12 20 24 36 24 12 0 0 0 0 8 8 8 0 0 0 0 0 0 0
0 0 0 0 8 20 48 56 44 20 0 0 0 0 0 0 0 0 0 0 0 0 0 0 0 0 0 0 0 0 0 0 0 0 0 0 0 0 0 0 0 0 0 0 0 0 0 0 0 0 0 0 0 0 0 0 0 0 0 0 0 0 0 0 0 0 0 0 0 0 0 0 0 0 0 0 0 0 0 0 0 0 0 12 24 32 32 24 20 8 0 0 0 8 8 8 8 0 0 0 0 0 0
0 0 0 0 0 12 32 36 32 20 0 0 0 0 0 0 0 0 0 0 0 0 0 0 0 0 0 0 0 0 0 0 0 0 0 0 0 0 0 0 0 0 0 0 0 0 0 0 0 0 0 0 0 0 0 0 0 0 0 0 0 0 0 0 0 0 0 0 0 0 0 0 0 0 0 0 0 0 0 0 0 0 0 8 20 24 20 20 20 8 0 0 0 8 12 12 8 0 0 0 0 0 0
0 0 0 0 0 8 12 12 12 8 0 0 0 0 0 0 0 0 0 0 0 0 0 0 0 0 0 0 0 0 0 0 0 0 0 0 0 0 0 0 0 0 0 0 0 0 0 0 0 0 0 0 0 0 0 0 0 0 0 0 0 0 0 0 0 0 0 0 0 0 0 0 0 0 0 0 8 8 0 0 0 0 0 0 8 12 12 12 12 12 8 0 0 8 12 12 8 8 0 0 0 0 0
8 0 0 0 8 8 8 0 0 0 0 0 0 0 0 0 0 0 0 0 0 0 0 0 0 0 0 0 0 0 0 0 0 0 0 0 0 0 0 0 0 0 0 0 0 0 0 0 0 0 0 0 0 0 0 0 0 0 0 0 0 0 0 0 0 0 0 0 0 0 0 0 0 0 0 0 12 20 12 12 8 8 0 0 0 8 12 12 12 20 12 8 0 0 8 12 12 8 8 0 0 0 0
24 12 12 20 20 20 20 0 0 0 0 0 0 0 0 0 0 0 0 0 0 0 0 0 0 0 0 0 0 0 0 0 0 0 0 0 0 0 0 0 0 0 0 0 0 0 0 0 0 0 0 0 0 0 0 0 0 0 0 0 0 0 0 0 0 0 0 0 0 0 0 0 0 0 0 0 12 24 24 24 20 8 0 0 0 0 20 12 12 20 20 12 0 0 0 8 12 12 8 8 8 0 8
36 32 36 36 36 32 20 0 0 0 0 0 0 0 0 0 0 0 0 0 0 0 0 0 0 0 0 0 0 0 0 0 0 0 0 0 0 0 0 0 0 0 0 0 0 0 0 0 0 0 0 0 0 0 0 0 0 0 0 0 0 0 0 0 0 0 0 0 0 0 0 0 0 0 0 0 8 20 32 32 20 8 8 0 0 0 12 12 12 12 20 12 8 0 0 8 12 12 12 8 8 8 8
20 32 36 36 32 12 8 0 0 0 0 0 0 0 0 0 0 0 0 0 0 0 0 0 0 0 0 0 0 0 0 0 0 0 0 0 0 0 0 0 0 0 0 0 0 0 0 0 0 0 0 0 0 0 0 0 0 0 0 0 0 0 0 0 0 0 0 0 0 8 12 12 8 8 12 8 8 12 32 24 20 12 8 8 8 8 12 8 8 8 12 8 8 0 0 8 12 12 12 12 12 8 8
0 8 8 12 8 0 0 0 0 0 0 0 0 0 0 0 0 0 0 0 0 0 0 0 0 0 0 0 0 0 0 0 0 0 0 0 0 0 0 0 0 0 0 0 0 0 0 0 0 0 0 0 0 0 0 0 0 0 0 0 0 0 0 0 0 0 0 0 8 20 24 24 24 24 20 8 12 20 24 24 20 12 8 8 12 12 12 12 8 8 8 8 0 0 0 0 8 12 20 12 12 12 8
0 0 0 0 0 0 0 0 0 0 0 0 0 0 0 0 0 0 0 0 0 0 0 0 0 0 0 0 0 0 0 0 0 0 0 0 0 0 0 0 0 0 0 0 0 0 0 0 0 0 0 0 0 0 0 0 0 0 0 0 0 0 0 0 0 0 8 8 12 24 36 36 36 32 20 12 12 12 20 20 20 12 12 12 12 12 12 12 12 12 8 8 0 0 0 8 8 12 20 12 12 12 8
0 0 0 0 0 0 0 0 0 0 0 0 0 0 0 0 0 0 0 0 0 0 0 0 0 0 0 0 0 0 0 0 0 0 0 0 0 0 0 0 0 0 0 0 0 0 0 0 0 0 0 0 0 0 0 0 0 0 0 0 0 0 0 8 8 12 12 20 24 36 36 32 24 20 12 20 12 8 8 12 12 12 20 12 12 12 12 20 20 20 12 12 12 8 8 8 8 8 12 12 12 20 12
0 0 0 0 0 0 0 0 0 0 0 0 0 0 0 0 0 0 0 0 0 0 0 0 0 0 0 0 0 0 0 0 0 0 0 0 0 0 0 0 0 0 0 0 0 0 0 0 0 0 0 0 0 0 0 0 0 0 0 0 0 0 0 8 12 24 24 32 44 56 48 36 24 20 12 12 8 8 8 8 8 12 12 12 20 20 20 24 24 24 20 20 20 20 20 12 8 8 8 12 12 20 20
0 0 0 0 0 0 0 0 0 0 0 0 0 0 0 0 0 0 0 0 0 0 0 0 0 0 0 0 0 0 0 0 0 0 0 0 0 0 0 0 0 0 0 0 0 0 0 0 0 0 0 0 0 0 0 0 0 0 8 8 8 8 0 8 20 32 36 48 56 56 48 44 32 20 12 12 12 12 12 8 8 8 12 20 20 20 20 32 32 32 24 32 32 32 32 24 20 12 8 12 20 20 24
0 0 0 0 0 0 0 0 0 0 0 0 0 0 0 0 0 0 0 0 0 0 0 0 0 0 0 0 0 0 0 0 0 0 0 0 0 0 0 0 0 0 0 0 0 0 0 0 0 0 0 0 0 0 0 0 0 0 0 12 20 12 8 12 20 32 48 56 56 56 36 32 24 20 12 20 20 24 32 20 12 12 12 12 12 20 12 24 36 36 32 36 36 32 24 24 24 20 20 20 24 20 20
0 0 0 0 0 0 0 0 0 0 0 0 0 0 0 0 0 0 0 0 0 0 0 0 0 0 0 0 0 0 0 0 0 0 0 0 0 0 0 0 0 0 0 0 0 0 0 0 0 0 0 0 0 0 0 0 0 0 20 24 24 20 20 20 20 32 44 56 48 44 36 32 32 24 20 12 20 24 36 24 24 20 12 12 8 8 12 24 36 44 36 44 44 44 36 32 32 32 24 32 24 24 20
0 0 0 0 0 0 0 0 0 0 0 0 0 0 0 0 0 0 0 0 0 0 0 0 0 0 0 0 0 0 0 0 0 0 0 0 0 0 0 0 0 0 0 0 0 0 0 0 0 0 0 0 0 0 0 8 8 12 24 24 24 24 12 12 24 32 44 44 36 32 32 32 32 24 24 20 20 24 44 44 36 36 24 20 12 8 12 12 32 44 44 48 48 44 44 44 36 36 36 32 32 24 24
0 0 0 0 0 0 0 0 0 0 0 0 0 0 0 0 0 0 0 0 0 0 0 0 0 0 0 0 0 0 0 0 0 0 0 0 0 0 0 0 0 0 0 0 0 0 0 0 0 0 0 8 8 12 12 12 12 12 12 12 12 12 12 20 20 24 32 32 32 32 32 32 32 24 32 32 32 36 56 56 48 44 36 32 20 12 12 20 24 32 48 48 48 48 44 44 44 36 36 36 32 32 24
0 0 0 0 0 0 0 0 0 0 0 0 0 0 0 0 0 0 0 0 0 0 0 0 0 0 0 0 0 0 0 0 0 0 0 0 0 0 0 0 0 0 0 0 0 0 0 0 0 0 0 12 12 12 12 12 20 24 24 24 24 24 12 32 24 20 24 24 32 36 36 36 36 36 36 36 44 48 64 56 56 48 44 36 32 24 20 32 32 36 44 48 48 48 48 48 44 44 44 36 32 32 32
0 0 0 0 0 0 0 0 0 0 0 0 0 0 0 0 0 0 0 0 0 0 0 0 0 0 0 0 0 0 0 0 0 8 0 0 0 0 0 0 0 0 0 0 0 0 0 0 8 8 12 12 12 12 12 20 20 12 12 12 12 12 20 24 32 32 36 32 32 36 48 44 44 44 48 64 68 68 76 64 56 56 56 44 36 36 32 36 44 44 56 64 56 48 48 48 48 44 44 36 32 32 32
0 0 0 0 0 0 0 0 0 0 0 0 0 0 0 0 0 0 0 0 0 0 0 0 0 0 0 0 0 8 12 12 20 20 20 12 12 12 12 8 8 0 0 12 12 12 12 12 12 12 12 12 12 12 12 12 12 12 12 12 12 12 20 24 24 32 32 32 36 44 44 44 44 44 64 68 76 80 76 64 56 64 64 64 56 44 44 44 48 48 64 56 56 48 48 48 48 48 44 44 36 32 24
0 0 0 0 0 0 0 0 0 0 0 0 0 0 0 0 0 0 0 0 0 0 0 0 0 0 0 12 20 20 24 24 24 32 32 12 12 20 20 20 20 20 20 20 20 12 12 12 12 12 12 12 12 12 12 12 12 12 12 12 12 12 12 20 20 20 24 20 32 44 44 44 44 44 56 68 80 76 68 68 64 64 76 76 68 68 56 56 48 48 64 56 56 56 56 48 48 48 48 44 44 36 32
0 0 0 0 0 0 0 0 0 0 0 0 0 0 0 0 0 0 0 0 0 0 0 0 0 8 8 8 12 20 12 8 8 8 12 20 20 20 20 20 20 20 20 20 20 20 20 20 20 12 12 8 8 8 8 8 8 0 0 0 0 8 8 8 8 8 12 24 32 36 32 32 24 32 48 68 76 76 68 64 64 68 76 80 76 76 76 68 56 56 56 64 56 56 56 56 56 56 56 56 48 44 36
0 0 0 0 0 0 0 0 0 0 0 0 0 0 0 0 0 0 0 0 0 0 0 0 0 0 0 0 0 0 0 0 0 8 20 20 20 20 20 20 20 20 20 20 20 20 20 20 20 20 8 8 0 0 0 0 0 0 0 0 8 8 8 8 8 8 12 20 24 24 24 12 12 20 32 56 68 76 76 68 68 68 76 76 76 76 76 76 68 56 56 64 64 56 56 56 64 64 56 56 56 48 48
0 0 0 0 0 0 0 0 0 0 0 0 0 0 0 0 0 0 0 0 0 0 0 0 0 0 0 0 0 0 0 0 0 8 12 12 20 20 20 20 20 20 20 20 12 20 20 20 20 12 0 0 0 0 0 0 0 0 0 8 8 8 12 12 12 20 20 20 12 12 12 12 12 20 24 32 48 64 68 68 76 76 68 68 76 76 76 76 76 68 64 64 64 64 64 64 64 64 64 56 56 56 48
0 0 0 0 0 0 0 0 0 0 0 0 0 0 0 0 0 0 0 0 0 0 0 0 0 0 0 0 0 0 0 0 0 0 0 8 12 20 20 20 20 12 12 8 8 8 12 12 8 0 0 0 0 0 0 0 0 0 0 8 8 12 12 12 20 20 20 12 12 12 12 12 12 20 20 24 32 36 48 64 68 68 68 64 68 68 76 76 76 76 68 64 64 64 64 56 56 64 64 64 56 56 56
0 0 0 0 0 0 0 0 0 0 0 0 0 0 0 0 0 0 0 0 0 0 0 0 0 0 0 0 0 0 0 0 0 0 0 0 8 12 12 12 8 0 0 0 0 0 0 0 0 0 0 0 0 0 0 0 8 8 8 8 12 12 12 12 12 12 12 20 20 12 12 12 12 20 20 24 32 32 36 56 64 64 64 68 68 68 68 76 76 76 68 68 64 56 56 56 56 56 56 56 56 56 48
0 0 0 0 0 0 0 0 0 0 0 0 0 0 0 0 0 0 0 0 0 0 0 0 0 0 0 0 0 0 0 0 0 0 0 0 0 8 8 8 0 0 0 0 0 0 0 0 0 0 0 0 0 0 8 8 8 8 8 12 12 12 12 12 12 12 20 24 24 24 20 20 20 20 20 24 24 32 36 44 56 64 64 68 76 76 80 76 76 68 68 68 64 56 56 56 56 48 56 56 56 56 48
0 0 0 0 0 0 0 0 0 0 0 0 0 0 0 0 0 0 0 0 0 0 0 0 0 0 0 0 0 0 0 0 0 0 0 0 0 0 0 0 0 0 0 0 0 8 0 0 0 0 0 8 8 8 12 8 8 12 8 12 12 12 12 12 12 12 20 24 32 36 32 24 32 32 32 24 32 32 36 36 44 48 48 56 64 68 76 76 76 76 68 68 68 64 56 56 56 48 48 48 48 48 48
0 0 0 0 0 0 0 0 0 0 0 0 0 0 0 0 0 0 0 0 0 0 0 0 0 0 0 0 0 0 0 0 0 0 0 0 0 0 0 0 0 0 0 0 8 8 0 0 0 0 8 8 8 8 8 8 8 8 8 8 12 12 12 12 12 12 20 20 24 32 44 44 44 44 36 36 36 36 36 36 44 44 36 44 56 64 64 76 76 76 68 68 68 64 56 56 56 56 48 48 48 48 44
0 0 0 0 0 0 0 0 0 0 0 0 0 0 0 0 0 0 0 0 0 0 0 0 0 0 0 0 0 0 0 0 0 0 0 0 0 0 0 0 0 0 0 0 0 0 0 0 0 8 8 8 8 8 8 8 8 8 8 8 8 12 12 12 12 12 12 20 20 24 36 48 56 56 48 44 44 44 44 44 36 36 36 36 44 56 56 68 76 76 76 76 68 68 64 64 64 56 56 56 48 48 44
0 0 0 0 0 0 0 0 0 0 0 0 0 0 0 0 0 0 0 0 0 0 0 0 0 0 0 0 0 0 0 0 0 0 0 0 0 0 0 0 0 8 0 0 0 0 0 0 8 8 8 8 8 8 8 8 8 8 8 8 8 12 12 12 12 12 12 20 20 24 32 48 64 68 68 64 56 56 48 48 44 44 36 32 36 36 48 64 68 76 76 76 76 68 64 64 64 56 56 56 48 48 44
0 0 0 0 0 0 0 0 0 0 0 0 0 0 0 0 0 0 0 0 0 0 0 0 0 0 8 12 12 12 8 8 8 8 8 8 8 8 8 8 8 8 8 0 0 0 0 0 8 8 8 8 8 8 8 8 8 8 8 8 8 8 8 8 12 12 8 12 12 20 24 36 48 68 80 76 68 64 64 64 56 56 56 36 32 32 36 48 64 68 76 76 68 64 64 64 64 56 56 56 48 48 48
0 0 0 0 0 0 0 0 0 0 0 0 0 0 0 0 0 0 0 0 0 0 0 8 12 12 20 20 20 20 12 12 8 8 8 8 8 8 12 8 8 0 0 0 0 0 0 0 0 0 8 8 8 8 8 8 8 8 8 8 8 8 8 8 8 8 8 8 8 12 20 20 32 48 64 76 68 68 64 68 68 68 76 56 44 36 36 44 56 68 76 76 76 68 64 64 64 56 56 56 56 56 56
0 0 0 0 0 0 0 0 0 0 0 0 0 0 0 0 0 0 0 0 0 0 0 12 24 32 32 24 20 20 20 12 12 12 12 8 8 8 8 8 0 0 0 0 0 0 0 0 8 8 8 8 8 8 8 8 8 8 8 8 8 8 8 8 8 8 8 8 8 8 12 20 24 32 44 56 56 64 68 64 68 80 80 76 64 48 48 44 48 56 64 76 76 76 68 64 64 64 56 56 56 56 64
0 0 0 0 0 0 0 0 0 0 0 0 0 0 0 0 0 0 0 0 0 0 8 12 32 48 44 36 32 24 20 20 20 12 12 12 12 8 0 0 0 0 0 0 0 0 0 8 8 8 8 8 8 8 8 8 8 8 8 8 8 8 8 8 8 8 8 8 8 8 12 20 20 24 32 36 48 56 68 64 64 68 76 76 68 68 76 64 56 56 64 76 76 76 76 68 64 64 56 56 64 64 64
0 0 0 0 0 0 0 0 0 0 0 0 0 0 0 0 0 0 0 0 0 0 8 12 24 44 56 48 36 32 20 20 12 8 12 12 12 8 0 0 0 0 0 0 0 0 0 0 0 0 0 0 0 8 8 8 8 8 8 8 8 8 8 8 8 8 8 8 8 8 8 12 20 24 32 36 44 48 64 76 76 76 56 68 76 76 76 76 68 64 68 76 80 80 76 76 68 64 64 64 64 64 64
0 0 0 0 0 0 0 0 0 0 0 0 0 0 0 0 0 0 0 0 0 0 8 12 20 32 56 48 44 32 12 8 0 0 0 8 8 0 0 0 0 0 0 0 0 0 0 0 0 0 0 0 0 0 8 8 8 8 8 8 8 8 8 8 8 8 8 8 0 0 8 12 20 20 32 44 44 48 48 56 68 76 48 68 76 76 76 80 80 76 76 80 80 80 80 76 68 68 64 64 64 56 56
0 0 0 0 0 0 0 0 0 0 0 0 0 0 0 0 0 0 0 0 0 0 0 8 8 12 24 32 32 24 8 0 0 0 0 0 0 0 0 0 0 0 0 0 0 0 0 0 0 0 0 0 0 0 0 8 8 8 8 8 8 8 8 8 8 8 0 8 8 8 12 12 12 20 20 36 44 36 32 32 36 44 48 68 76 68 76 80 80 80 80 80 80 80 76 76 68 68 56 56 56 56 56
0 0 0 0 0 0 0 0 0 0 20 24 24 32 32 12 0 0 0 0 0 0 0 0 0 0 0 8 12 8 0 0 0 0 0 0 0 0 0 0 8 8 0 0 0 0 0 0 0 0 0 0 0 0 8 8 8 8 8 8 8 8 8 8 8 8 8 8 8 8 8 12 12 12 12 20 24 24 20 20 24 36 68 76 76 68 64 68 76 80 80 80 80 80 76 76 68 68 68 56 56 56 56
0 0 0 0 0 0 0 0 12 24 24 32 36 36 36 12 0 0 0 0 0 0 0 0 0 0 0 0 0 0 0 0 0 0 0 0 0 0 0 12 12 12 0 0 0 0 0 0 0 0 0 0 0 8 8 8 8 8 8 8 0 0 8 8 8 8 8 8 8 8 8 8 8 8 12 12 8 8 12 12 32 56 80 76 68 64 56 56 68 80 80 80 76 76 76 76 68 68 68 64 64 56 64
0 0 0 0 0 0 0 20 24 24 24 32 36 32 24 12 0 0 0 0 0 0 0 0 0 0 0 0 0 0 0 0 0 0 0 0 0 0 0 0 0 0 0 0 0 0 0 0 0 0 0 0 0 8 8 8 8 8 0 0 0 0 0 0 0 0 8 8 8 12 12 8 8 8 8 8 0 0 0 20 48 80 80 80 68 56 48 56 64 68 76 76 68 64 68 68 68 68 68 68 68 68 64
0 0 0 0 0 8 24 24 24 24 24 24 24 20 20 0 0 0 0 0 0 0 0 0 0 0 0 0 0 0 0 0 0 0 0 0 0 0 0 0 0 0 0 0 0 0 0 0 0 0 0 0 0 8 8 8 0 0 0 0 0 0 0 0 0 0 0 0 12 12 12 8 0 0 8 0 0 0 8 20 48 80 80 80 80 68 32 44 56 56 48 56 64 64 68 68 76 68 68 68 76 76 76
0 0 0 0 8 20 24 24 24 24 20 20 20 20 20 0 0 0 0 0 0 0 0 0 0 0 0 0 0 0 0 0 0 0 0 0 0 0 0 0 0 0 0 0 0 0 0 0 0 0 0 0 0 8 0 0 0 0 0 0 8 12 12 8 8 12 12 12 20 20 12 12 8 8 0 12 20 24 36 48 64 80 80 76 64 36 24 32 44 48 48 64 68 68 80 76 76 76 68 76 76 76 76
0 0 0 0 0 8 24 24 20 20 20 20 20 12 8 0 0 0 0 0 0 0 0 0 0 0 0 0 0 0 0 0 0 0 0 0 0 0 0 0 0 0 0 0 0 0 0 0 0 0 0 0 0 0 0 0 0 0 0 12 12 12 12 12 20 20 32 36 36 36 36 32 24 24 24 24 24 36 76 76 56 36 32 24 24 24 32 36 44 48 56 64 68 76 80 80 80 76 76 76 76 76 76
0 0 0 0 0 0 8 0 8 8 12 8 0 0 0 0 0 0 0 0 0 0 0 0 0 0 0 0 0 0 0 0 0 0 0 0 0 0 0 0 0 0 0 0 0 0 0 0 0 0 0 0 0 0 0 0 0 0 12 12 12 12 12 20 32 44 44 56 48 48 48 44 44 36 32 32 24 24 24 32 24 12 12 20 24 32 48 44 48 56 64 64 68 76 80 80 80 76 76 76 76 76 76
0 0 0 0 0 0 0 0 0 0 0 0 0 0 8 0 0 0 0 0 0 0 0 0 0 0 0 0 0 0 0 0 0 0 0 0 0 0 0 0 0 0 0 0 0 0 0 0 0 0 0 0 0 0 0 0 0 0 12 12 12 12 12 24 48 68 64 80 88 88 88 68 64 56 48 24 12 8 0 8 0 0 8 20 32 48 88 64 64 64 68 68 68 68 80 80 80 76 80 76 76 76 76
0 0 0 0 0 0 0 0 8 12 12 20 20 20 24 20 8 0 0 0 0 0 0 0 0 0 0 0 0 0 0 0 0 0 0 0 0 0 0 0 0 0 0 0 0 0 0 0 0 0 0 0 0 0 0 0 0 8 12 12 12 12 12 24 36 56 76 80 80 88 88 80 68 64 48 44 24 8 0 0 0 0 0 24 44 68 88 80 80 80 76 68 68 76 88 80 80 80 80 80 80 76 76
0 0 0 0 0 0 0 8 12 12 20 36 44 44 44 32 20 8 0 0 0 0 0 0 0 0 0 0 0 0 0 0 0 0 0 0 0 0 0 0 0 0 0 0 0 0 0 0 0 0 0 0 0 0 0 0 8 8 12 8 12 20 20 24 24 24 36 48 68 80 80 88 80 68 48 44 32 20 8 8 8 8 12 20 48 76 80 80 80 80 80 76 68 76 88 80 76 76 80 80 80 76 76